• In Deutschland
  • Länderverzeichnis
  • Für 7 Tage
  • Wassertemperatur
  • Satellitenkarten
  • Wetterkarte
  • Widgets
  • user-avatar
    Anmelden

    Stündliche Wetter Warna

    Heute, 20 August, Sonntag

    Zeit Temperatur Niederschläge Wind Luftdruck Luftfeuchtigkeit
    00:00 +21°C° 0 mm 3 m/S 746 mmHg 60%
    01:00 +21°C° 0 mm 3 m/S 746 mmHg 60%
    02:00 +20°C° 0 mm 3 m/S 745 mmHg 59%
    03:00 +20°C° 0 mm 3 m/S 745 mmHg 60%
    04:00 +20°C° 0 mm 3 m/S 745 mmHg 61%
    05:00 +19°C° 0 mm 3 m/S 745 mmHg 61%
    06:00 +21°C° 0 mm 4 m/S 745 mmHg 57%
    07:00 +23°C° 0 mm 4 m/S 746 mmHg 53%
    08:00 +26°C° 0 mm 4 m/S 746 mmHg 47%
    09:00 +28°C° 0 mm 4 m/S 745 mmHg 44%
    10:00 +30°C° 0 mm 4 m/S 745 mmHg 40%
    11:00 +32°C° 0 mm 4 m/S 745 mmHg 37%
    12:00 +33°C° 0 mm 4 m/S 745 mmHg 36%
    13:00 +34°C° 0 mm 4 m/S 745 mmHg 36%
    14:00 +34°C° 0 mm 4 m/S 744 mmHg 35%
    15:00 +34°C° 0 mm 4 m/S 744 mmHg 38%
    16:00 +33°C° 0 mm 4 m/S 744 mmHg 41%
    17:00 +32°C° 0 mm 4 m/S 743 mmHg 44%
    18:00 +29°C° 0 mm 4 m/S 743 mmHg 55%
    19:00 +27°C° 0 mm 3 m/S 743 mmHg 66%
    20:00 +24°C° 0 mm 2 m/S 743 mmHg 77%
    21:00 +24°C° 0 mm 2 m/S 743 mmHg 82%
    22:00 +23°C° 0 mm 1 m/S 743 mmHg 86%
    23:00 +22°C° 0 mm 1 m/S 743 mmHg 90%

    Morgen, 21 August, Montag

    Zeit Temperatur Niederschläge Wind Luftdruck Luftfeuchtigkeit
    00:00 +22°C° 0 mm 1 m/S 743 mmHg 90%
    01:00 +22°C° 0 mm 1 m/S 743 mmHg 91%
    02:00 +21°C° 0 mm 1 m/S 743 mmHg 91%
    03:00 +21°C° 0 mm 1 m/S 743 mmHg 91%
    04:00 +21°C° 0 mm 1 m/S 742 mmHg 90%
    05:00 +20°C° 0 mm 2 m/S 742 mmHg 90%
    06:00 +21°C° 0 mm 2 m/S 742 mmHg 82%
    07:00 +24°C° 0 mm 3 m/S 743 mmHg 74%
    08:00 +25°C° 0 mm 3 m/S 743 mmHg 65%
    09:00 +27°C° 0 mm 3 m/S 743 mmHg 59%
    10:00 +28°C° 0 mm 3 m/S 743 mmHg 52%
    11:00 +30°C° 0 mm 3 m/S 743 mmHg 45%
    12:00 +30°C° 0 mm 3 m/S 742 mmHg 44%
    13:00 +31°C° 0 mm 2 m/S 742 mmHg 42%
    14:00 +31°C° 0 mm 2 m/S 742 mmHg 40%
    15:00 +31°C° 0 mm 3 m/S 741 mmHg 41%
    16:00 +30°C° 0 mm 3 m/S 741 mmHg 43%
    17:00 +30°C° 0 mm 3 m/S 741 mmHg 45%
    18:00 +28°C° 0 mm 3 m/S 741 mmHg 50%
    19:00 +27°C° 0 mm 3 m/S 741 mmHg 55%
    20:00 +26°C° 0 mm 3 m/S 742 mmHg 60%
    21:00 +25°C° 0,1 mm 5 m/S 742 mmHg 62%
    22:00 +23°C° 0,1 mm 6 m/S 742 mmHg 63%
    23:00 +22°C° 0,1 mm 8 m/S 743 mmHg 64%

    übermorgen, 22 August, Dienstag

    Zeit Temperatur Niederschläge Wind Luftdruck Luftfeuchtigkeit
    00:00 +20°C° 0,2 mm 7 m/S 743 mmHg 68%
    01:00 +18°C° 0,2 mm 7 m/S 743 mmHg 71%
    02:00 +17°C° 0,2 mm 7 m/S 743 mmHg 75%
    03:00 +16°C° 0,2 mm 7 m/S 743 mmHg 77%
    04:00 +16°C° 0,2 mm 7 m/S 743 mmHg 78%
    05:00 +15°C° 0,2 mm 6 m/S 743 mmHg 80%
    06:00 +16°C° 0,1 mm 6 m/S 744 mmHg 78%
    07:00 +16°C° 0,1 mm 7 m/S 744 mmHg 75%
    08:00 +16°C° 0,1 mm 7 m/S 745 mmHg 73%
    09:00 +17°C° 0,1 mm 7 m/S 745 mmHg 69%
    10:00 +17°C° 0,1 mm 7 m/S 745 mmHg 66%
    11:00 +18°C° 0,1 mm 7 m/S 746 mmHg 62%
    12:00 +20°C° 0 mm 7 m/S 745 mmHg 58%
    13:00 +20°C° 0 mm 6 m/S 745 mmHg 54%
    14:00 +21°C° 0 mm 6 m/S 745 mmHg 50%
    15:00 +22°C° 0 mm 6 m/S 745 mmHg 47%
    16:00 +23°C° 0 mm 5 m/S 745 mmHg 44%
    17:00 +25°C° 0 mm 5 m/S 745 mmHg 41%
    18:00 +23°C° 0 mm 4 m/S 745 mmHg 47%
    19:00 +21°C° 0 mm 3 m/S 745 mmHg 53%
    20:00 +19°C° 0 mm 3 m/S 745 mmHg 59%
    21:00 +19°C° 0 mm 3 m/S 745 mmHg 60%
    22:00 +18°C° 0 mm 3 m/S 746 mmHg 62%
    23:00 +18°C° 0 mm 3 m/S 746 mmHg 64%

    23 August, Mittwoch

    Zeit Temperatur Niederschläge Wind Luftdruck Luftfeuchtigkeit
    00:00 +18°C° 0 mm 3 m/S 746 mmHg 64%
    01:00 +17°C° 0 mm 3 m/S 746 mmHg 65%
    02:00 +17°C° 0 mm 3 m/S 746 mmHg 65%
    03:00 +17°C° 0 mm 3 m/S 746 mmHg 64%
    04:00 +17°C° 0 mm 2 m/S 746 mmHg 64%
    05:00 +17°C° 0 mm 2 m/S 746 mmHg 63%
    06:00 +19°C° 0 mm 2 m/S 746 mmHg 57%
    07:00 +20°C° 0 mm 3 m/S 747 mmHg 50%
    08:00 +22°C° 0 mm 3 m/S 747 mmHg 43%
    09:00 +25°C° 0 mm 3 m/S 747 mmHg 38%
    10:00 +27°C° 0 mm 4 m/S 747 mmHg 33%
    11:00 +29°C° 0 mm 4 m/S 747 mmHg 28%
    12:00 +29°C° 0 mm 5 m/S 747 mmHg 27%
    13:00 +30°C° 0 mm 5 m/S 747 mmHg 26%
    14:00 +30°C° 0 mm 5 m/S 747 mmHg 26%
    15:00 +30°C° 0 mm 5 m/S 747 mmHg 26%
    16:00 +29°C° 0 mm 5 m/S 747 mmHg 27%
    17:00 +29°C° 0 mm 5 m/S 747 mmHg 28%
    18:00 +27°C° 0 mm 5 m/S 747 mmHg 34%
    19:00 +23°C° 0 mm 4 m/S 747 mmHg 40%
    20:00 +21°C° 0 mm 3 m/S 748 mmHg 47%
    21:00 +21°C° 0 mm 3 m/S 748 mmHg 52%
    22:00 +20°C° 0 mm 2 m/S 748 mmHg 57%
    23:00 +19°C° 0 mm 2 m/S 748 mmHg 62%

    24 August, Donnerstag

    Zeit Temperatur Niederschläge Wind Luftdruck Luftfeuchtigkeit
    00:00 +19°C° 0 mm 2 m/S 748 mmHg 63%
    01:00 +18°C° 0 mm 2 m/S 748 mmHg 64%
    02:00 +19°C° 0 mm 1 m/S 748 mmHg 66%
    03:00 +19°C° 0 mm 1 m/S 748 mmHg 65%
    04:00 +19°C° 0 mm 1 m/S 749 mmHg 65%
    05:00 +18°C° 0 mm 1 m/S 749 mmHg 65%
    06:00 +20°C° 0 mm 1 m/S 749 mmHg 58%
    07:00 +21°C° 0 mm 2 m/S 750 mmHg 52%
    08:00 +24°C° 0 mm 2 m/S 750 mmHg 46%
    09:00 +26°C° 0 mm 2 m/S 750 mmHg 41%
    10:00 +27°C° 0 mm 2 m/S 750 mmHg 36%
    11:00 +29°C° 0 mm 2 m/S 750 mmHg 31%
    12:00 +30°C° 0 mm 2 m/S 750 mmHg 30%
    13:00 +30°C° 0 mm 3 m/S 750 mmHg 29%
    14:00 +31°C° 0 mm 3 m/S 750 mmHg 28%
    15:00 +30°C° 0 mm 3 m/S 750 mmHg 30%
    16:00 +29°C° 0 mm 4 m/S 750 mmHg 33%
    17:00 +29°C° 0 mm 4 m/S 750 mmHg 36%
    18:00 +26°C° 0 mm 4 m/S 750 mmHg 46%
    19:00 +23°C° 0 mm 4 m/S 750 mmHg 56%
    20:00 +21°C° 0 mm 4 m/S 750 mmHg 66%
    21:00 +21°C° 0 mm 3 m/S 750 mmHg 70%
    22:00 +20°C° 0 mm 3 m/S 751 mmHg 74%
    23:00 +20°C° 0 mm 3 m/S 751 mmHg 79%

    25 August, Freitag

    Zeit Temperatur Niederschläge Wind Luftdruck Luftfeuchtigkeit
    00:00 +19°C° 0 mm 2 m/S 751 mmHg 79%
    01:00 +19°C° 0 mm 2 m/S 751 mmHg 80%
    02:00 +19°C° 0 mm 2 m/S 751 mmHg 81%
    03:00 +18°C° 0 mm 2 m/S 751 mmHg 81%
    04:00 +18°C° 0 mm 2 m/S 751 mmHg 81%
    05:00 +18°C° 0 mm 2 m/S 751 mmHg 81%
    06:00 +20°C° 0 mm 2 m/S 751 mmHg 72%
    07:00 +22°C° 0 mm 3 m/S 752 mmHg 62%
    08:00 +25°C° 0 mm 3 m/S 752 mmHg 53%
    09:00 +26°C° 0 mm 4 m/S 752 mmHg 46%
    10:00 +28°C° 0 mm 4 m/S 752 mmHg 39%
    11:00 +29°C° 0 mm 5 m/S 752 mmHg 32%
    12:00 +29°C° 0 mm 5 m/S 752 mmHg 31%
    13:00 +29°C° 0 mm 5 m/S 752 mmHg 31%
    14:00 +30°C° 0 mm 6 m/S 751 mmHg 30%
    15:00 +29°C° 0 mm 6 m/S 751 mmHg 33%
    16:00 +28°C° 0 mm 6 m/S 751 mmHg 35%
    17:00 +27°C° 0 mm 6 m/S 751 mmHg 38%
    18:00 +25°C° 0 mm 5 m/S 751 mmHg 47%
    19:00 +22°C° 0 mm 4 m/S 751 mmHg 57%
    20:00 +20°C° 0 mm 4 m/S 751 mmHg 66%
    21:00 +20°C° 0 mm 3 m/S 751 mmHg 70%
    22:00 +19°C° 0 mm 3 m/S 751 mmHg 74%
    23:00 +19°C° 0 mm 2 m/S 751 mmHg 79%
    Mehr zeigen